| time (UTC) | temp C | wind direction | speed KPH | gust KPH | rain 1hr cm | rain 24hr cm | rain mn cm | humidity % | barometer mb |
| 20260505152401 | -17 | 359 | 0.0 | 1.6 | 0.00 | 0.00 | 0.00 | 1013.4 | |
| 20260505151901 | -17 | 345 | 0.0 | 0.0 | 0.00 | 0.00 | 0.00 | 1013.3 | |
| 20260505151358 | -17 | 339 | 1.6 | 3.2 | 0.00 | 0.00 | 0.00 | 1013.2 | |
| 20260505150855 | -17 | 337 | 0.0 | 0.0 | 0.00 | 0.00 | 0.00 | 1013.4 | |
| 20260505150352 | -17 | 265 | 0.0 | 0.0 | 0.00 | 0.00 | 0.00 | 1013.4 | |
| 20260505140316 | -17 | 303 | 0.0 | 1.6 | 0.00 | 0.00 | 0.00 | 1013.5 | |
| 20260505130240 | -17 | 307 | 0.0 | 0.0 | 0.00 | 0.00 | 0.00 | 1013.4 | |
| 20260505124731 | -17 | 283 | 1.6 | 1.6 | 0.00 | 0.00 | 0.00 | 1013.3 | |
| 20260505124227 | -17 | 294 | 0.0 | 0.0 | 0.00 | 0.00 | 0.00 | 1013.0 | |
| 20260505123723 | -17 | 289 | 0.0 | 0.0 | 0.00 | 0.00 | 0.00 | 1013.3 | |
| 20260505123220 | -17 | 289 | 0.0 | 0.0 | 0.00 | 0.00 | 0.00 | 1013.0 | |
| 20260505122716 | -17 | 299 | 0.0 | 0.0 | 0.00 | 0.00 | 0.00 | 1012.9 | |
| 20260505122214 | -17 | 296 | 0.0 | 0.0 | 0.00 | 0.00 | 0.00 | 1012.8 | |
| 20260505121710 | -17 | 293 | 0.0 | 0.0 | 0.00 | 0.00 | 0.00 | 1013.0 | |
| 20260505121207 | -17 | 294 | 0.0 | 0.0 | 0.00 | 0.00 | 0.00 | 1012.6 | |
| 20260505120703 | -17 | 301 | 0.0 | 0.0 | 0.00 | 0.00 | 0.00 | 1012.9 | |
| 20260505120159 | -17 | 301 | 0.0 | 0.0 | 0.00 | 0.00 | 0.00 | 1013.0 | |
| 20260505115652 | -17 | 301 | 0.0 | 0.0 | 0.00 | 0.00 | 0.00 | 1012.9 | |
| 20260505115151 | -17 | 301 | 0.0 | 0.0 | 0.00 | 0.00 | 0.00 | 1012.5 | |
| 20260505114648 | -17 | 300 | 0.0 | 0.0 | 0.00 | 0.00 | 0.00 | 1012.6 | |
| 20260505114144 | -17 | 300 | 0.0 | 0.0 | 0.00 | 0.00 | 0.00 | 1012.6 | |
| 20260505113640 | -17 | 301 | 0.0 | 0.0 | 0.00 | 0.00 | 0.00 | 1012.6 | |
| 20260505113137 | -17 | 302 | 0.0 | 0.0 | 0.00 | 0.00 | 0.00 | 1012.5 | |
| 20260505112633 | -17 | 304 | 0.0 | 0.0 | 0.00 | 0.00 | 0.00 | 1012.5 | |
| 20260505112132 | -17 | 299 | 0.0 | 0.0 | 0.00 | 0.00 | 0.00 | 1012.4 | |
| 20260505111631 | -17 | 298 | 0.0 | 0.0 | 0.00 | 0.00 | 0.00 | 1012.3 | |
| 20260505111127 | -17 | 301 | 0.0 | 0.0 | 0.00 | 0.00 | 0.00 | 1012.2 | |
| 20260505110623 | -17 | 300 | 0.0 | 0.0 | 0.00 | 0.00 | 0.00 | 1012.2 | |
| 20260505110121 | -17 | 301 | 0.0 | 0.0 | 0.00 | 0.00 | 0.00 | 1012.1 | |
| 20260505102056 | -17 | 301 | 0.0 | 0.0 | 0.00 | 0.00 | 0.00 | 1012.1 | |
| 20260505101555 | -17 | 296 | 0.0 | 0.0 | 0.00 | 0.00 | 0.00 | 1012.2 | |
| 20260505101051 | -17 | 303 | 0.0 | 0.0 | 0.00 | 0.00 | 0.00 | 1011.9 | |
| 20260505100547 | -17 | 306 | 0.0 | 0.0 | 0.00 | 0.00 | 0.00 | 1012.1 | |
| 20260505100044 | -17 | 305 | 0.0 | 0.0 | 0.00 | 0.00 | 0.00 | 1012.2 | |
| 20260505095540 | -17 | 306 | 0.0 | 0.0 | 0.00 | 0.00 | 0.00 | 1012.4 | |
| 20260505095037 | -17 | 305 | 0.0 | 0.0 | 0.00 | 0.00 | 0.00 | 1012.0 | |
| 20260505094534 | -17 | 305 | 0.0 | 0.0 | 0.00 | 0.00 | 0.00 | 1012.1 | |
| 20260505094030 | -17 | 300 | 0.0 | 0.0 | 0.00 | 0.00 | 0.00 | 1012.2 | |
| 20260505093526 | -17 | 300 | 0.0 | 0.0 | 0.00 | 0.00 | 0.00 | 1012.3 | |
| 20260505093024 | -17 | 292 | 0.0 | 0.0 | 0.00 | 0.00 | 0.00 | 1012.1 | |
| 20260505092521 | -17 | 303 | 0.0 | 0.0 | 0.00 | 0.00 | 0.00 | 1012.3 | |
| 20260505092019 | -17 | 307 | 0.0 | 0.0 | 0.00 | 0.00 | 0.00 | 1012.3 | |
| 20260505091516 | -17 | 296 | 0.0 | 0.0 | 0.00 | 0.00 | 0.00 | 1012.3 | |
| 20260505091014 | -17 | 299 | 0.0 | 0.0 | 0.00 | 0.00 | 0.00 | 1012.3 | |
| 20260505090512 | -17 | 287 | 0.0 | 0.0 | 0.00 | 0.00 | 0.00 | 1012.2 | |
| 20260505090009 | -17 | 296 | 0.0 | 0.0 | 0.00 | 0.00 | 0.00 | 1012.3 | |
| 20260505085507 | -17 | 305 | 0.0 | 0.0 | 0.00 | 0.00 | 0.00 | 1012.1 | |
| 20260505085005 | -17 | 316 | 0.0 | 0.0 | 0.00 | 0.00 | 0.00 | 1012.1 | |
| 20260505084503 | -17 | 296 | 0.0 | 0.0 | 0.00 | 0.00 | 0.00 | 1011.9 | |
| 20260505084001 | -17 | 302 | 0.0 | 0.0 | 0.00 | 0.00 | 0.00 | 1012.0 | |
| 20260505083458 | -17 | 297 | 0.0 | 0.0 | 0.00 | 0.00 | 0.00 | 1011.7 | |
| 20260505082954 | -17 | 302 | 0.0 | 0.0 | 0.00 | 0.00 | 0.00 | 1011.6 | |
| 20260505082450 | -17 | 300 | 0.0 | 0.0 | 0.00 | 0.00 | 0.00 | 1011.4 | |
| 20260505081947 | -17 | 301 | 0.0 | 0.0 | 0.00 | 0.00 | 0.00 | 1011.8 | |
| 20260505081444 | -17 | 294 | 0.0 | 0.0 | 0.00 | 0.00 | 0.00 | 1011.5 | |
| 20260505080940 | -17 | 302 | 0.0 | 0.0 | 0.00 | 0.00 | 0.00 | 1011.6 | |
| 20260505080436 | -17 | 309 | 0.0 | 0.0 | 0.00 | 0.00 | 0.00 | 1011.2 | |
| 20260505075932 | -17 | 299 | 0.0 | 0.0 | 0.00 | 0.00 | 0.00 | 1011.4 | |
| 20260505075429 | -17 | 294 | 0.0 | 0.0 | 0.00 | 0.00 | 0.00 | 1011.2 | |
| 20260505074926 | -17 | 302 | 0.0 | 0.0 | 0.00 | 0.00 | 0.00 | 1011.4 | |
| 20260505074424 | -17 | 285 | 0.0 | 0.0 | 0.00 | 0.00 | 0.00 | 1011.3 | |
| 20260505073921 | -17 | 295 | 0.0 | 0.0 | 0.00 | 0.00 | 0.00 | 1011.4 | |
| 20260505073418 | -17 | 290 | 0.0 | 0.0 | 0.00 | 0.00 | 0.00 | 1011.5 | |
| 20260505072915 | -17 | 292 | 0.0 | 0.0 | 0.00 | 0.00 | 0.00 | 1011.5 | |
| 20260505072411 | -17 | 303 | 0.0 | 0.0 | 0.00 | 0.00 | 0.00 | 1011.4 | |
| 20260505071908 | -17 | 299 | 0.0 | 0.0 | 0.00 | 0.00 | 0.00 | 1011.6 | |
| 20260505071404 | -17 | 309 | 0.0 | 0.0 | 0.00 | 0.00 | 0.00 | 1011.6 | |
| 20260505070902 | -17 | 301 | 0.0 | 0.0 | 0.00 | 0.00 | 0.00 | 1011.5 | |
| 20260505070358 | -17 | 295 | 0.0 | 0.0 | 0.00 | 0.00 | 0.00 | 1011.6 | |
| 20260505065854 | -17 | 324 | 1.6 | 1.6 | 0.00 | 0.00 | 0.00 | 1011.5 | |
| 20260505065351 | -17 | 283 | 0.0 | 0.0 | 0.00 | 0.00 | 0.00 | 1011.7 | |
| 20260505064848 | -17 | 286 | 0.0 | 0.0 | 0.00 | 0.00 | 0.00 | 1011.7 | |
| 20260505064345 | -17 | 302 | 0.0 | 0.0 | 0.00 | 0.00 | 0.00 | 1011.7 | |
| 20260505063843 | -17 | 299 | 0.0 | 0.0 | 0.00 | 0.00 | 0.00 | 1011.6 | |
| 20260505063338 | -17 | 287 | 0.0 | 0.0 | 0.00 | 0.00 | 0.00 | 1011.5 | |
| 20260505062835 | -17 | 261 | 0.0 | 0.0 | 0.00 | 0.00 | 0.00 | 1011.5 | |
| 20260505062333 | -17 | 295 | 0.0 | 0.0 | 0.00 | 0.00 | 0.00 | 1011.3 | |
| 20260505061829 | -17 | 277 | 0.0 | 0.0 | 0.00 | 0.00 | 0.00 | 1011.5 | |
| 20260505061328 | -17 | 258 | 0.0 | 0.0 | 0.00 | 0.00 | 0.00 | 1011.5 | |
| 20260505060825 | -17 | 292 | 0.0 | 0.0 | 0.00 | 0.00 | 0.00 | 1011.5 | |
| 20260505060322 | -17 | 283 | 0.0 | 0.0 | 0.00 | 0.00 | 0.00 | 1011.5 | |
| 20260505055817 | -17 | 299 | 0.0 | 0.0 | 0.00 | 0.00 | 0.00 | 1011.6 | |
| 20260505055313 | -17 | 293 | 0.0 | 0.0 | 0.00 | 0.00 | 0.00 | 1011.4 | |
| 20260505054811 | -17 | 312 | 0.0 | 0.0 | 0.00 | 0.00 | 0.00 | 1011.3 | |
| 20260505054308 | -17 | 318 | 0.0 | 0.0 | 0.00 | 0.00 | 0.00 | 1011.4 | |
| 20260505053807 | -17 | 279 | 0.0 | 0.0 | 0.00 | 0.00 | 0.00 | 1011.6 | |
| 20260505053303 | -17 | 280 | 0.0 | 0.0 | 0.00 | 0.00 | 0.00 | 1011.3 | |
| 20260505052800 | -17 | 327 | 0.0 | 0.0 | 0.00 | 0.00 | 0.00 | 1011.4 | |
| 20260505052257 | -17 | 310 | 0.0 | 0.0 | 0.00 | 0.00 | 0.00 | 1011.4 | |
| 20260505051754 | -17 | 282 | 0.0 | 0.0 | 0.00 | 0.00 | 0.00 | 1011.5 | |
| 20260505051252 | -17 | 300 | 0.0 | 0.0 | 0.00 | 0.00 | 0.00 | 1011.4 | |
| 20260505050749 | -17 | 272 | 0.0 | 0.0 | 0.00 | 0.00 | 0.00 | 1011.3 | |
| 20260505050248 | -17 | 299 | 0.0 | 0.0 | 0.00 | 0.00 | 0.00 | 1011.4 | |
| 20260505041717 | -17 | 319 | 0.0 | 0.0 | 0.00 | 0.00 | 0.00 | 1010.9 | |
| 20260505041215 | -17 | 300 | 0.0 | 0.0 | 0.00 | 0.00 | 0.00 | 1011.1 | |
| 20260505040712 | -17 | 297 | 0.0 | 0.0 | 0.00 | 0.00 | 0.00 | 1011.3 | |
| 20260505040209 | -17 | 296 | 0.0 | 0.0 | 0.00 | 0.00 | 0.00 | 1011.5 | |
| 20260505035706 | -17 | 294 | 0.0 | 0.0 | 0.00 | 0.00 | 0.00 | 1011.3 | |
| 20260505035202 | -17 | 299 | 0.0 | 0.0 | 0.00 | 0.00 | 0.00 | 1011.2 | |
| 20260505034658 | -17 | 297 | 0.0 | 0.0 | 0.00 | 0.00 | 0.00 | 1011.3 | |
| 20260505034156 | -17 | 306 | 0.0 | 0.0 | 0.00 | 0.00 | 0.00 | 1011.2 | |
| 20260505033652 | -17 | 303 | 0.0 | 0.0 | 0.00 | 0.00 | 0.00 | 1011.3 | |
| 20260505033150 | -17 | 287 | 0.0 | 0.0 | 0.00 | 0.00 | 0.00 | 1011.3 | |
| 20260505032648 | -17 | 256 | 0.0 | 0.0 | 0.00 | 0.00 | 0.00 | 1011.2 | |
| 20260505032144 | -17 | 314 | 0.0 | 0.0 | 0.00 | 0.00 | 0.00 | 1011.3 | |
| 20260505031642 | -17 | 288 | 0.0 | 0.0 | 0.00 | 0.00 | 0.00 | 1011.3 | |
| 20260505031138 | -17 | 305 | 0.0 | 0.0 | 0.00 | 0.00 | 0.00 | 1011.5 | |
| 20260505030635 | -17 | 334 | 0.0 | 0.0 | 0.00 | 0.00 | 0.00 | 1011.5 | |
| 20260505030130 | -17 | 294 | 0.0 | 0.0 | 0.00 | 0.00 | 0.00 | 1011.3 | |
| 20260505025627 | -17 | 297 | 0.0 | 0.0 | 0.00 | 0.00 | 0.00 | 1011.5 | |
| 20260505025126 | -17 | 291 | 0.0 | 0.0 | 0.00 | 0.00 | 0.00 | 1011.5 | |
| 20260505024623 | -17 | 307 | 0.0 | 0.0 | 0.00 | 0.00 | 0.00 | 1011.4 | |
| 20260505024120 | -17 | 333 | 0.0 | 0.0 | 0.00 | 0.00 | 0.00 | 1011.4 | |
| 20260505023617 | -17 | 359 | 1.6 | 1.6 | 0.00 | 0.00 | 0.00 | 1011.4 | |
| 20260505023115 | -17 | 321 | 0.0 | 0.0 | 0.00 | 0.00 | 0.00 | 1011.5 | |
| 20260505022612 | -17 | 310 | 0.0 | 0.0 | 0.00 | 0.00 | 0.00 | 1011.5 | |
| 20260505022108 | -17 | 332 | 0.0 | 0.0 | 0.00 | 0.00 | 0.00 | 1011.5 | |
| 20260505021605 | -17 | 332 | 0.0 | 0.0 | 0.00 | 0.00 | 0.00 | 1011.5 | |
| 20260505021102 | -17 | 7 | 0.0 | 0.0 | 0.00 | 0.00 | 0.00 | 1011.4 | |
| 20260505020602 | -17 | 301 | 0.0 | 0.0 | 0.00 | 0.00 | 0.00 | 1011.5 | |
| 20260505020059 | -17 | 310 | 0.0 | 1.6 | 0.00 | 0.00 | 0.00 | 1011.3 | |
| 20260505015556 | -17 | 299 | 0.0 | 1.6 | 0.00 | 0.00 | 0.00 | 1011.3 | |
| 20260505015053 | -17 | 291 | 0.0 | 0.0 | 0.00 | 0.00 | 0.00 | 1011.4 | |
| 20260505014549 | -17 | 292 | 0.0 | 0.0 | 0.00 | 0.00 | 0.00 | 1011.6 | |
| 20260505014046 | -17 | 298 | 0.0 | 0.0 | 0.00 | 0.00 | 0.00 | 1011.3 | |
| 20260505013543 | -17 | 276 | 0.0 | 0.0 | 0.00 | 0.00 | 0.00 | 1011.4 | |
| 20260505013041 | -17 | 276 | 0.0 | 0.0 | 0.00 | 0.00 | 0.00 | 1011.3 | |
| 20260505012539 | -17 | 304 | 0.0 | 0.0 | 0.00 | 0.00 | 0.00 | 1011.4 | |
| 20260505012036 | -17 | 343 | 0.0 | 1.6 | 0.00 | 0.00 | 0.00 | 1011.0 | |
| 20260505011531 | -17 | 263 | 0.0 | 0.0 | 0.00 | 0.00 | 0.00 | 1011.1 | |
| 20260505011029 | -17 | 42 | 0.0 | 1.6 | 0.00 | 0.00 | 0.00 | 1010.9 | |
| 20260505010524 | -17 | 226 | 0.0 | 0.0 | 0.00 | 0.00 | 0.00 | 1011.0 | |
| 20260505010021 | -17 | 260 | 0.0 | 0.0 | 0.00 | 0.00 | 0.00 | 1011.0 | |
| 20260505005517 | -17 | 295 | 0.0 | 0.0 | 0.00 | 0.00 | 0.00 | 1010.8 | |
| 20260505005015 | -17 | 267 | 0.0 | 0.0 | 0.00 | 0.00 | 0.00 | 1010.9 | |
| 20260505004512 | -17 | 277 | 0.0 | 0.0 | 0.00 | 0.00 | 0.00 | 1010.7 | |
| 20260505004008 | -17 | 238 | 0.0 | 1.6 | 0.00 | 0.00 | 0.00 | 1010.8 | |
| 20260505003505 | -17 | 334 | 0.0 | 0.0 | 0.00 | 0.00 | 0.00 | 1010.8 | |
| 20260505003002 | -17 | 190 | 0.0 | 1.6 | 0.00 | 0.00 | 0.00 | 1010.8 | |
| 20260505002458 | -17 | 256 | 0.0 | 0.0 | 0.00 | 0.00 | 0.00 | 1010.7 | |
| 20260505001956 | -17 | 286 | 0.0 | 0.0 | 0.00 | 0.00 | 0.00 | 1010.4 | |
| 20260505001453 | -17 | 285 | 1.6 | 3.2 | 0.00 | 0.00 | 0.00 | 1010.5 | |
| 20260505000950 | -17 | 310 | 0.0 | 0.0 | 0.00 | 0.00 | 0.00 | 1010.4 | |
| 20260505000448 | -17 | 240 | 0.0 | 0.0 | 0.00 | 0.00 | 0.00 | 1010.6 | |
| 20260504235945 | -17 | 157 | 3.2 | 3.2 | 0.00 | 0.00 | 0.00 | 1010.6 | |
| 20260504235442 | -17 | 332 | 0.0 | 0.0 | 0.00 | 0.00 | 0.00 | 1010.7 | |
| 20260504234939 | -17 | 282 | 0.0 | 0.0 | 0.00 | 0.00 | 0.00 | 1010.5 | |
| 20260504234436 | -17 | 345 | 0.0 | 0.0 | 0.00 | 0.00 | 0.00 | 1010.6 | |
| 20260504233932 | -17 | 301 | 0.0 | 0.0 | 0.00 | 0.00 | 0.00 | 1010.5 | |
| 20260504233428 | -17 | 271 | 0.0 | 1.6 | 0.00 | 0.00 | 0.00 | 1010.5 | |
| 20260504232925 | -17 | 274 | 0.0 | 0.0 | 0.00 | 0.00 | 0.00 | 1010.5 | |
| 20260504232422 | -17 | 279 | 0.0 | 0.0 | 0.00 | 0.00 | 0.00 | 1010.4 | |
| 20260504231919 | -17 | 288 | 0.0 | 1.6 | 0.00 | 0.00 | 0.00 | 1010.7 | |
| 20260504231415 | -17 | 306 | 0.0 | 0.0 | 0.00 | 0.00 | 0.00 | 1010.8 | |
| 20260504230912 | -17 | 290 | 0.0 | 1.6 | 0.00 | 0.00 | 0.00 | 1010.6 | |
| 20260504230409 | -17 | 280 | 0.0 | 0.0 | 0.00 | 0.00 | 0.00 | 1010.4 | |
| 20260504225908 | -17 | 163 | 0.0 | 0.0 | 0.00 | 0.00 | 0.00 | 1010.5 | |
| 20260504225404 | -17 | 288 | 0.0 | 1.6 | 0.00 | 0.00 | 0.00 | 1010.3 | |
| 20260504224902 | -17 | 354 | 1.6 | 1.6 | 0.00 | 0.00 | 0.00 | 1010.6 | |
| 20260504224358 | -17 | 324 | 0.0 | 0.0 | 0.00 | 0.00 | 0.00 | 1010.6 | |
| 20260504223855 | -17 | 318 | 0.0 | 0.0 | 0.00 | 0.00 | 0.00 | 1010.6 | |
| 20260504223350 | -17 | 312 | 0.0 | 0.0 | 0.00 | 0.00 | 0.00 | 1010.7 | |
| 20260504222847 | -17 | 338 | 0.0 | 0.0 | 0.00 | 0.00 | 0.00 | 1010.9 | |
| 20260504222344 | -17 | 308 | 0.0 | 0.0 | 0.00 | 0.00 | 0.00 | 1010.7 | |
| 20260504221843 | -17 | 296 | 0.0 | 0.0 | 0.00 | 0.00 | 0.00 | 1010.7 | |
| 20260504221339 | -17 | 18 | 0.0 | 1.6 | 0.00 | 0.00 | 0.00 | 1010.5 | |
| 20260504220836 | -17 | 78 | 0.0 | 0.0 | 0.00 | 0.00 | 0.00 | 1010.7 | |
| 20260504220333 | -17 | 310 | 0.0 | 0.0 | 0.00 | 0.00 | 0.00 | 1010.7 | |
| 20260504215830 | -17 | 298 | 0.0 | 0.0 | 0.00 | 0.00 | 0.00 | 1010.8 | |
| 20260504215326 | -17 | 212 | 0.0 | 0.0 | 0.00 | 0.00 | 0.00 | 1010.6 | |
| 20260504214822 | -17 | 315 | 3.2 | 3.2 | 0.00 | 0.00 | 0.00 | 1010.9 | |
| 20260504214320 | -17 | 297 | 0.0 | 0.0 | 0.00 | 0.00 | 0.00 | 1010.7 | |
| 20260504213816 | -17 | 324 | 0.0 | 1.6 | 0.00 | 0.00 | 0.00 | 1010.8 | |
| 20260504213312 | -17 | 330 | 0.0 | 0.0 | 0.00 | 0.00 | 0.00 | 1010.9 | |
| 20260504212810 | -17 | 334 | 0.0 | 1.6 | 0.00 | 0.00 | 0.00 | 1010.8 | |
| 20260504212306 | -17 | 302 | 0.0 | 0.0 | 0.00 | 0.00 | 0.00 | 1010.6 | |
| 20260504211803 | -17 | 230 | 0.0 | 1.6 | 0.00 | 0.00 | 0.00 | 1010.9 | |
| 20260504211259 | -17 | 303 | 1.6 | 3.2 | 0.00 | 0.00 | 0.00 | 1010.9 | |
| 20260504210757 | -17 | 246 | 0.0 | 1.6 | 0.00 | 0.00 | 0.00 | 1011.0 | |
| 20260504210254 | -17 | 258 | 3.2 | 3.2 | 0.00 | 0.00 | 0.00 | 1010.7 | |
| 20260504205751 | -17 | 144 | 3.2 | 3.2 | 0.00 | 0.00 | 0.00 | 1010.9 | |
| 20260504205249 | -17 | 285 | 1.6 | 1.6 | 0.00 | 0.00 | 0.00 | 1011.1 | |
| 20260504204747 | -17 | 278 | 4.8 | 8.0 | 0.00 | 0.00 | 0.00 | 1011.1 | |
| 20260504204244 | -17 | 270 | 1.6 | 1.6 | 0.00 | 0.00 | 0.00 | 1011.1 | |
| 20260504203744 | -17 | 297 | 1.6 | 3.2 | 0.00 | 0.00 | 0.00 | 1011.1 | |
| 20260504203241 | -17 | 306 | 3.2 | 3.2 | 0.00 | 0.00 | 0.00 | 1011.4 | |
| 20260504202740 | -17 | 293 | 0.0 | 1.6 | 0.00 | 0.00 | 0.00 | 1011.1 | |
| 20260504202238 | -17 | 301 | 0.0 | 0.0 | 0.00 | 0.00 | 0.00 | 1011.2 | |
| 20260504201735 | -17 | 190 | 1.6 | 1.6 | 0.00 | 0.00 | 0.00 | 1011.4 | |
| 20260504201232 | -17 | 185 | 1.6 | 1.6 | 0.00 | 0.00 | 0.00 | 1011.4 | |
| 20260504200730 | -17 | 253 | 0.0 | 0.0 | 0.00 | 0.00 | 0.00 | 1011.4 | |
| 20260504200225 | -17 | 299 | 1.6 | 1.6 | 0.00 | 0.00 | 0.00 | 1011.4 | |
| 20260504195722 | -17 | 317 | 4.8 | 4.8 | 0.00 | 0.00 | 0.00 | 1011.8 | |
| 20260504195218 | -17 | 311 | 1.6 | 3.2 | 0.00 | 0.00 | 0.00 | 1011.7 | |
| 20260504194715 | -17 | 297 | 1.6 | 1.6 | 0.00 | 0.00 | 0.00 | 1011.8 | |
| 20260504194212 | -17 | 172 | 1.6 | 1.6 | 0.00 | 0.00 | 0.00 | 1011.7 | |
| 20260504193708 | -17 | 297 | 3.2 | 3.2 | 0.00 | 0.00 | 0.00 | 1012.0 | |
| 20260504193206 | -17 | 353 | 1.6 | 3.2 | 0.00 | 0.00 | 0.00 | 1011.7 | |
| 20260504192704 | -17 | 270 | 1.6 | 3.2 | 0.00 | 0.00 | 0.00 | 1011.8 | |
| 20260504192201 | -17 | 298 | 0.0 | 0.0 | 0.00 | 0.00 | 0.00 | 1012.0 | |
| 20260504191700 | -17 | 188 | 0.0 | 0.0 | 0.00 | 0.00 | 0.00 | 1012.0 | |
| 20260504191156 | -17 | 303 | 1.6 | 1.6 | 0.00 | 0.00 | 0.00 | 1012.4 | |
| 20260504190651 | -17 | 333 | 3.2 | 4.8 | 0.00 | 0.00 | 0.00 | 1012.4 | |
| 20260504190148 | -17 | 280 | 0.0 | 0.0 | 0.00 | 0.00 | 0.00 | 1012.3 | |
| 20260504185645 | -17 | 303 | 1.6 | 1.6 | 0.00 | 0.00 | 0.00 | 1012.3 | |
| 20260504185142 | -17 | 334 | 1.6 | 1.6 | 0.00 | 0.00 | 0.00 | 1012.4 | |
| 20260504184638 | -17 | 296 | 1.6 | 1.6 | 0.00 | 0.00 | 0.00 | 1012.4 | |
| 20260504184133 | -17 | 310 | 1.6 | 1.6 | 0.00 | 0.00 | 0.00 | 1012.8 | |
| 20260504183630 | -17 | 317 | 0.0 | 1.6 | 0.00 | 0.00 | 0.00 | 1012.8 | |
| 20260504183127 | -17 | 309 | 0.0 | 1.6 | 0.00 | 0.00 | 0.00 | 1013.0 | |
| 20260504182625 | -17 | 282 | 0.0 | 1.6 | 0.00 | 0.00 | 0.00 | 1013.1 | |
| 20260504182122 | -17 | 270 | 0.0 | 0.0 | 0.00 | 0.00 | 0.00 | 1013.2 | |
| 20260504181620 | -17 | 321 | 0.0 | 1.6 | 0.00 | 0.00 | 0.00 | 1013.0 | |
| 20260504181117 | -17 | 295 | 1.6 | 3.2 | 0.00 | 0.00 | 0.00 | 1013.2 | |
| 20260504180616 | -17 | 306 | 0.0 | 0.0 | 0.00 | 0.00 | 0.00 | 1013.0 | |
| 20260504180115 | -17 | 288 | 1.6 | 1.6 | 0.00 | 0.00 | 0.00 | 1013.4 | |
| 20260504175611 | -17 | 258 | 0.0 | 0.0 | 0.00 | 0.00 | 0.00 | 1013.3 | |
| 20260504175108 | -17 | 260 | 0.0 | 1.6 | 0.00 | 0.00 | 0.00 | 1013.2 | |
| 20260504174606 | -17 | 266 | 1.6 | 1.6 | 0.00 | 0.00 | 0.00 | 1013.4 | |
| 20260504174102 | -17 | 313 | 0.0 | 1.6 | 0.00 | 0.00 | 0.00 | 1013.4 | |
| 20260504173559 | -17 | 242 | 4.8 | 8.0 | 0.00 | 0.00 | 0.00 | 1013.6 | |
| 20260504173057 | -17 | 228 | 1.6 | 1.6 | 0.00 | 0.00 | 0.00 | 1013.7 | |
| 20260504172553 | -17 | 260 | 1.6 | 3.2 | 0.00 | 0.00 | 0.00 | 1013.6 | |
| 20260504172050 | -17 | 238 | 1.6 | 1.6 | 0.00 | 0.00 | 0.00 | 1013.6 | |
| 20260504171546 | -17 | 210 | 1.6 | 1.6 | 0.00 | 0.00 | 0.00 | 1013.6 | |
| 20260504171044 | -17 | 331 | 0.0 | 0.0 | 0.00 | 0.00 | 0.00 | 1013.7 | |
| 20260504170539 | -17 | 301 | 1.6 | 3.2 | 0.00 | 0.00 | 0.00 | 1013.9 |